JST422 YPDN-YBBN

Flight info

Callsign JST422
Flight time 3h 34m
Altitude 39000
Route DCT DN Y25 OPEKO A464 UNVAT V327 IGUPI Y340 LAMUG Y177 BN DCT
Aircraft A20N/M-SDE2E3FGHIRWXY/LB1

Departure

Time 2026-04-22 09:44
Airport Darwin International Airport / RAAF Darwin (YPDN)

Arrival

Time 2026-04-22 13:18
Airport Brisbane International Airport (YBBN)
Time Latitude Longitude Altitude Speed Heading
2026-04-22 09:11 -12.40866 130.87686 128 ft 0 kts 19°
2026-04-22 09:29 -12.40881 130.87681 125 ft 3 kts 17°
2026-04-22 09:29 -12.40900 130.87675 126 ft 3 kts 13°
2026-04-22 09:30 -12.40918 130.87672 125 ft 3 kts
2026-04-22 09:30 -12.40933 130.87672 125 ft 2 kts 349°
2026-04-22 09:30 -12.40942 130.87675 126 ft 1 kts 328°
2026-04-22 09:30 -12.40949 130.87680 127 ft 1 kts 306°
2026-04-22 09:31 -12.40953 130.87688 128 ft 1 kts 291°
2026-04-22 09:31 -12.40955 130.87694 127 ft 1 kts 285°
2026-04-22 09:31 -12.40956 130.87697 125 ft 1 kts 283°
2026-04-22 09:31 -12.40957 130.87704 125 ft 0 kts 281°
2026-04-22 09:33 -12.40957 130.87703 125 ft 0 kts 281°
2026-04-22 09:34 -12.40956 130.87683 125 ft 0 kts 269°
2026-04-22 09:35 -12.40956 130.87682 125 ft 0 kts 269°
2026-04-22 09:35 -12.40955 130.87679 125 ft 0 kts 269°
2026-04-22 09:35 -12.40955 130.87678 125 ft 0 kts 269°
2026-04-22 09:36 -12.40952 130.87667 126 ft 17 kts 266°
2026-04-22 09:36 -12.40937 130.87619 131 ft 0 kts 193°
2026-04-22 09:37 -12.40947 130.87618 129 ft 0 kts 193°
2026-04-22 09:37 -12.40971 130.87611 131 ft 0 kts 197°
2026-04-22 09:38 -12.40973 130.87611 131 ft 3 kts 197°
2026-04-22 09:38 -12.41065 130.87580 129 ft 32 kts 199°
2026-04-22 09:38 -12.41280 130.87504 133 ft 33 kts 198°
2026-04-22 09:38 -12.41451 130.87438 132 ft 17 kts 215°
2026-04-22 09:39 -12.41496 130.87342 131 ft 13 kts 279°
2026-04-22 09:39 -12.41469 130.87257 127 ft 12 kts 289°
2026-04-22 09:39 -12.41442 130.87176 124 ft 12 kts 289°
2026-04-22 09:39 -12.41416 130.87099 132 ft 11 kts 289°
2026-04-22 09:40 -12.41390 130.87022 132 ft 14 kts 288°
2026-04-22 09:40 -12.41349 130.86902 129 ft 21 kts 289°
2026-04-22 09:40 -12.41296 130.86742 127 ft 26 kts 289°
2026-04-22 09:40 -12.41232 130.86556 127 ft 28 kts 292°
2026-04-22 09:41 -12.41098 130.86482 129 ft 21 kts 13°
2026-04-22 09:41 -12.41068 130.86492 132 ft 0 kts 20°
2026-04-22 09:42 -12.41067 130.86492 132 ft 2 kts 20°
2026-04-22 09:42 -12.41040 130.86503 132 ft 7 kts 20°
2026-04-22 09:43 -12.40995 130.86519 133 ft 6 kts 20°
2026-04-22 09:43 -12.40959 130.86544 133 ft 6 kts 51°
2026-04-22 09:43 -12.40955 130.86575 133 ft 0 kts 103°
2026-04-22 09:43 -12.40956 130.86579 133 ft 1 kts 105°
2026-04-22 09:44 -12.41022 130.86775 133 ft 66 kts 109°
2026-04-22 09:44 -12.41264 130.87494 134 ft 146 kts 109°
2026-04-22 09:44 -12.41640 130.88595 567 ft 174 kts 107°
2026-04-22 09:44 -12.41746 130.89896 1000 ft 199 kts 76°
2026-04-22 09:45 -12.40986 130.91191 1440 ft 231 kts 46°
2026-04-22 09:45 -12.39841 130.92386 2217 ft 242 kts 59°
2026-04-22 09:45 -12.39241 130.93973 3148 ft 240 kts 81°
2026-04-22 09:45 -12.39041 130.95673 4028 ft 241 kts 92°
2026-04-22 09:46 -12.39219 130.97380 4913 ft 243 kts 100°
2026-04-22 09:46 -12.39515 130.99093 5774 ft 248 kts 100°
2026-04-22 09:46 -12.39823 131.00881 6401 ft 264 kts 100°
2026-04-22 09:46 -12.40154 131.02793 6963 ft 280 kts 100°
2026-04-22 09:47 -12.40546 131.04753 7837 ft 278 kts 103°
2026-04-22 09:47 -12.41007 131.06596 8979 ft 255 kts 104°
2026-04-22 09:47 -12.41445 131.08259 10152 ft 229 kts 104°
2026-04-22 09:47 -12.41846 131.09745 11231 ft 206 kts 104°
2026-04-22 09:48 -12.42212 131.11128 11998 ft 199 kts 104°
2026-04-22 09:48 -12.42454 131.12045 12304 ft 205 kts 104°
2026-04-22 09:48 -12.42947 131.14024 12561 ft 231 kts 103°
2026-04-22 09:48 -12.43350 131.15704 12674 ft 254 kts 103°
2026-04-22 09:49 -12.43788 131.17548 12777 ft 277 kts 103°
2026-04-22 09:49 -12.44098 131.18852 12867 ft 291 kts 103°
2026-04-22 09:49 -12.44586 131.20906 13187 ft 303 kts 103°
2026-04-22 09:49 -12.45087 131.23033 13524 ft 314 kts 103°
2026-04-22 09:50 -12.45612 131.25238 13845 ft 324 kts 103°
2026-04-22 09:50 -12.46148 131.27518 14148 ft 333 kts 103°
2026-04-22 09:50 -12.46687 131.29855 14459 ft 341 kts 103°
2026-04-22 09:50 -12.47178 131.32255 14753 ft 348 kts 99°
2026-04-22 09:51 -12.47596 131.34719 15064 ft 354 kts 103°
2026-04-22 09:51 -12.48200 131.37190 15370 ft 360 kts 104°
2026-04-22 09:51 -12.48851 131.39685 15686 ft 364 kts 105°
2026-04-22 09:51 -12.49522 131.42184 15992 ft 364 kts 105°
2026-04-22 09:52 -12.50193 131.44654 16299 ft 366 kts 105°
2026-04-22 09:52 -12.50880 131.47171 16617 ft 368 kts 105°
2026-04-22 09:52 -12.51574 131.49704 16979 ft 369 kts 105°
2026-04-22 09:52 -12.52269 131.52237 17378 ft 371 kts 106°
2026-04-22 09:53 -12.52971 131.54797 17786 ft 373 kts 106°
2026-04-22 09:53 -12.53677 131.57368 18192 ft 375 kts 106°
2026-04-22 09:53 -12.54384 131.59944 18548 ft 377 kts 106°
2026-04-22 09:53 -12.55092 131.62524 18902 ft 378 kts 106°
2026-04-22 09:54 -12.55803 131.65116 19257 ft 379 kts 106°
2026-04-22 09:54 -12.56507 131.67683 19616 ft 380 kts 106°
2026-04-22 09:54 -12.57223 131.70299 19990 ft 382 kts 107°
2026-04-22 09:54 -12.57941 131.72918 20363 ft 384 kts 107°
2026-04-22 09:55 -12.58665 131.75561 20739 ft 386 kts 106°
2026-04-22 09:55 -12.59394 131.78226 21128 ft 389 kts 106°
2026-04-22 09:55 -12.60129 131.80910 21518 ft 391 kts 107°
2026-04-22 09:55 -12.60865 131.83601 21911 ft 394 kts 107°
2026-04-22 09:56 -12.61596 131.86277 22308 ft 396 kts 107°
2026-04-22 09:56 -12.62342 131.89005 22719 ft 399 kts 107°
2026-04-22 09:56 -12.63091 131.91749 23123 ft 401 kts 107°
2026-04-22 09:56 -12.63844 131.94507 23530 ft 404 kts 107°
2026-04-22 09:57 -12.64604 131.97292 23868 ft 406 kts 107°
2026-04-22 09:57 -12.65366 132.00085 24218 ft 409 kts 107°
2026-04-22 09:57 -12.66132 132.02896 24570 ft 411 kts 107°
2026-04-22 09:57 -12.66896 132.05700 24924 ft 413 kts 107°
2026-04-22 09:58 -12.67678 132.08572 25292 ft 415 kts 107°
2026-04-22 09:58 -12.68447 132.11395 25655 ft 417 kts 107°
2026-04-22 09:58 -12.69228 132.14264 26023 ft 419 kts 107°
2026-04-22 09:58 -12.70011 132.17143 26397 ft 420 kts 106°
2026-04-22 09:59 -12.70795 132.20028 26774 ft 421 kts 107°
2026-04-22 09:59 -12.71439 132.22953 27152 ft 422 kts 102°
2026-04-22 09:59 -12.72322 132.25803 27538 ft 419 kts 120°
2026-04-22 09:59 -12.74054 132.28183 27936 ft 416 kts 138°
2026-04-22 10:00 -12.76419 132.29831 28338 ft 412 kts 158°
2026-04-22 10:00 -12.79165 132.30584 28714 ft 409 kts 176°
2026-04-22 10:00 -12.81996 132.30384 28883 ft 411 kts 195°
2026-04-22 10:00 -12.84708 132.29403 29052 ft 416 kts 202°
2026-04-22 10:01 -12.87413 132.28399 29213 ft 422 kts 197°
2026-04-22 10:01 -12.90300 132.27759 29362 ft 429 kts 188°
2026-04-22 10:01 -12.93310 132.27590 29520 ft 435 kts 180°
2026-04-22 10:01 -12.96358 132.27814 29678 ft 442 kts 174°
2026-04-22 10:02 -12.99418 132.28296 29832 ft 447 kts 171°
2026-04-22 10:02 -13.02494 132.28918 29990 ft 453 kts 169°
2026-04-22 10:02 -13.05598 132.29601 30134 ft 457 kts 169°
2026-04-22 10:02 -13.08691 132.30287 30209 ft 463 kts 169°
2026-04-22 10:03 -13.11863 132.30975 30414 ft 465 kts 170°
2026-04-22 10:03 -13.15040 132.31646 30674 ft 466 kts 170°
2026-04-22 10:03 -13.18231 132.32304 30992 ft 466 kts 171°
2026-04-22 10:03 -13.21398 132.32948 31370 ft 464 kts 171°
2026-04-22 10:04 -13.24561 132.33585 31751 ft 462 kts 171°
2026-04-22 10:04 -13.27716 132.34218 32106 ft 461 kts 171°
2026-04-22 10:04 -13.30855 132.34848 32466 ft 459 kts 172°
2026-04-22 10:04 -13.33981 132.35476 32874 ft 457 kts 172°
2026-04-22 10:05 -13.37091 132.36102 33258 ft 454 kts 172°
2026-04-22 10:05 -13.40149 132.36717 33605 ft 453 kts 172°
2026-04-22 10:05 -13.43240 132.37340 33939 ft 452 kts 172°
2026-04-22 10:05 -13.46318 132.37960 34208 ft 451 kts 172°
2026-04-22 10:06 -13.49408 132.38582 34441 ft 451 kts 172°
2026-04-22 10:06 -13.52490 132.39204 34672 ft 452 kts 172°
2026-04-22 10:06 -13.55572 132.39825 34907 ft 452 kts 172°
2026-04-22 10:06 -13.58663 132.40449 35134 ft 452 kts 172°
2026-04-22 10:07 -13.61746 132.41071 35378 ft 451 kts 172°
2026-04-22 10:07 -13.64825 132.41693 35639 ft 450 kts 172°
2026-04-22 10:07 -13.67896 132.42313 35875 ft 450 kts 172°
2026-04-22 10:07 -13.70978 132.42936 36081 ft 450 kts 172°
2026-04-22 10:08 -13.74055 132.43557 36294 ft 450 kts 172°
2026-04-22 10:08 -13.77092 132.44171 36501 ft 450 kts 172°
2026-04-22 10:08 -13.80173 132.44794 36709 ft 450 kts 172°
2026-04-22 10:08 -13.83259 132.45418 36883 ft 451 kts 172°
2026-04-22 10:09 -13.86344 132.46041 37031 ft 453 kts 172°
2026-04-22 10:09 -13.89438 132.46667 37230 ft 453 kts 172°
2026-04-22 10:09 -13.92526 132.47292 37446 ft 452 kts 172°
2026-04-22 10:09 -13.95617 132.47918 37659 ft 452 kts 172°
2026-04-22 10:10 -13.98670 132.48537 37861 ft 452 kts 172°
2026-04-22 10:10 -14.01754 132.49162 38062 ft 452 kts 172°
2026-04-22 10:10 -14.04837 132.49786 38266 ft 451 kts 172°
2026-04-22 10:10 -14.07917 132.50411 38472 ft 451 kts 172°
2026-04-22 10:11 -14.10993 132.51034 38730 ft 449 kts 172°
2026-04-22 10:11 -14.14054 132.51655 38912 ft 448 kts 172°
2026-04-22 10:11 -14.20199 132.52900 38958 ft 449 kts 172°
2026-04-22 10:12 -14.26284 132.54136 38972 ft 445 kts 172°
2026-04-22 10:12 -14.32399 132.55377 38968 ft 450 kts 172°
2026-04-22 10:13 -14.38537 132.56623 38968 ft 448 kts 172°
2026-04-22 10:13 -14.44627 132.57862 38962 ft 447 kts 172°
2026-04-22 10:14 -14.50742 132.59106 38965 ft 448 kts 172°
2026-04-22 10:14 -14.56858 132.60350 38965 ft 448 kts 172°
2026-04-22 10:15 -14.62978 132.61597 38979 ft 447 kts 172°
2026-04-22 10:15 -14.69059 132.62836 38971 ft 448 kts 171°
2026-04-22 10:16 -14.72032 132.63831 38973 ft 453 kts 155°
2026-04-22 10:16 -14.74625 132.65698 38981 ft 458 kts 137°
2026-04-22 10:16 -14.76650 132.68244 38976 ft 462 kts 125°
2026-04-22 10:16 -14.78327 132.71090 38976 ft 464 kts 121°
2026-04-22 10:17 -14.81611 132.76870 38971 ft 466 kts 124°
2026-04-22 10:17 -14.85242 132.82415 38980 ft 465 kts 128°
2026-04-22 10:18 -14.89083 132.87746 38988 ft 465 kts 129°
2026-04-22 10:18 -14.93011 132.93062 38980 ft 465 kts 129°
2026-04-22 10:19 -14.96939 132.98389 38975 ft 465 kts 129°
2026-04-22 10:19 -15.00849 133.03724 38986 ft 465 kts 129°
2026-04-22 10:20 -15.04733 133.09038 38983 ft 466 kts 129°
2026-04-22 10:20 -15.08638 133.14388 38982 ft 466 kts 129°
2026-04-22 10:21 -15.12546 133.19743 38984 ft 466 kts 129°
2026-04-22 10:21 -15.16450 133.25096 38985 ft 466 kts 129°
2026-04-22 10:22 -15.20354 133.30452 38996 ft 466 kts 129°
2026-04-22 10:22 -15.24260 133.35815 38988 ft 467 kts 129°
2026-04-22 10:23 -15.28148 133.41156 38988 ft 467 kts 129°
2026-04-22 10:23 -15.32061 133.46536 38988 ft 467 kts 129°
2026-04-22 10:24 -15.35969 133.51913 38990 ft 467 kts 129°
2026-04-22 10:24 -15.39875 133.57291 38993 ft 467 kts 129°
2026-04-22 10:25 -15.43778 133.62668 38990 ft 466 kts 129°
2026-04-22 10:25 -15.47678 133.68046 38993 ft 467 kts 129°
2026-04-22 10:26 -15.51585 133.73436 38997 ft 467 kts 129°
2026-04-22 10:26 -15.55493 133.78832 38996 ft 467 kts 129°
2026-04-22 10:27 -15.59373 133.84193 39000 ft 467 kts 130°
2026-04-22 10:27 -15.63274 133.89586 38995 ft 467 kts 130°
2026-04-22 10:28 -15.67175 133.94984 39001 ft 468 kts 130°
2026-04-22 10:28 -15.71084 134.00397 39004 ft 468 kts 130°
2026-04-22 10:29 -15.74989 134.05809 39004 ft 468 kts 130°
2026-04-22 10:29 -15.78892 134.11221 39004 ft 468 kts 130°
2026-04-22 10:30 -15.82777 134.16612 39009 ft 468 kts 130°
2026-04-22 10:30 -15.86678 134.22030 39009 ft 468 kts 130°
2026-04-22 10:31 -15.90586 134.27460 39010 ft 468 kts 130°
2026-04-22 10:31 -15.94485 134.32883 39007 ft 468 kts 130°
2026-04-22 10:32 -15.98384 134.38310 39011 ft 469 kts 130°
2026-04-22 10:32 -16.02264 134.43714 39010 ft 469 kts 130°
2026-04-22 10:33 -16.06159 134.49147 39012 ft 469 kts 130°
2026-04-22 10:33 -16.10055 134.54588 39012 ft 469 kts 130°
2026-04-22 10:34 -16.13951 134.60034 39011 ft 469 kts 129°
2026-04-22 10:34 -16.17846 134.65481 39012 ft 469 kts 130°
2026-04-22 10:35 -16.21720 134.70903 39014 ft 469 kts 130°
2026-04-22 10:35 -16.25617 134.76362 39012 ft 469 kts 129°
2026-04-22 10:36 -16.29513 134.81824 39014 ft 469 kts 129°
2026-04-22 10:36 -16.33409 134.87289 39024 ft 469 kts 130°
2026-04-22 10:37 -16.39217 134.95446 39013 ft 469 kts 130°
2026-04-22 10:38 -16.42472 135.00020 39013 ft 469 kts 130°
2026-04-22 10:38 -16.46983 135.06365 39013 ft 469 kts 130°
2026-04-22 10:39 -16.50234 135.10941 39010 ft 469 kts 130°
2026-04-22 10:39 -16.54115 135.16407 39011 ft 469 kts 130°
2026-04-22 10:40 -16.57968 135.21838 39011 ft 469 kts 130°
2026-04-22 10:40 -16.61842 135.27304 39022 ft 469 kts 130°
2026-04-22 10:41 -16.65720 135.32778 39013 ft 470 kts 130°
2026-04-22 10:41 -16.69600 135.38262 39013 ft 470 kts 130°
2026-04-22 10:42 -16.73485 135.43755 39010 ft 470 kts 130°
2026-04-22 10:42 -16.77373 135.49258 39012 ft 470 kts 130°
2026-04-22 10:43 -16.81254 135.54754 39013 ft 470 kts 130°
2026-04-22 10:43 -16.85131 135.60249 39014 ft 470 kts 130°
2026-04-22 10:44 -16.88994 135.65729 39010 ft 471 kts 130°
2026-04-22 10:44 -16.92883 135.71249 39013 ft 471 kts 130°
2026-04-22 10:45 -16.96765 135.76764 39017 ft 471 kts 130°
2026-04-22 10:45 -17.00645 135.82281 39014 ft 471 kts 130°
2026-04-22 10:46 -17.04501 135.87768 39013 ft 472 kts 130°
2026-04-22 10:46 -17.08387 135.93303 39018 ft 472 kts 130°
2026-04-22 10:47 -17.12275 135.98844 39021 ft 472 kts 130°
2026-04-22 10:47 -17.16167 136.04395 39021 ft 472 kts 130°
2026-04-22 10:48 -17.20052 136.09942 39023 ft 473 kts 130°
2026-04-22 10:48 -17.23912 136.15456 39024 ft 473 kts 130°
2026-04-22 10:49 -17.27796 136.21010 39027 ft 473 kts 130°
2026-04-22 10:49 -17.31687 136.26579 39029 ft 473 kts 130°
2026-04-22 10:50 -17.35571 136.32141 39029 ft 473 kts 130°
2026-04-22 10:50 -17.39453 136.37705 39034 ft 473 kts 130°
2026-04-22 10:51 -17.43333 136.43272 39040 ft 473 kts 130°
2026-04-22 10:51 -17.47190 136.48809 39031 ft 474 kts 130°
2026-04-22 10:52 -17.51076 136.54392 39034 ft 474 kts 130°
2026-04-22 10:52 -17.54964 136.59985 39041 ft 474 kts 130°
2026-04-22 10:53 -17.58847 136.65573 39036 ft 474 kts 130°
2026-04-22 10:53 -17.62733 136.71172 39035 ft 474 kts 130°
2026-04-22 10:54 -17.66616 136.76769 39040 ft 474 kts 130°
2026-04-22 10:54 -17.70496 136.82368 39046 ft 474 kts 130°
2026-04-22 10:55 -17.74345 136.87928 39046 ft 474 kts 130°
2026-04-22 10:55 -17.78224 136.93534 39046 ft 474 kts 130°
2026-04-22 10:56 -17.82106 136.99149 39043 ft 474 kts 130°
2026-04-22 10:56 -17.85961 137.04731 39048 ft 475 kts 130°
2026-04-22 10:57 -17.89844 137.10357 39045 ft 475 kts 130°
2026-04-22 10:57 -17.93724 137.15984 39048 ft 475 kts 130°
2026-04-22 10:58 -17.97597 137.21607 39049 ft 475 kts 130°
2026-04-22 10:58 -18.01482 137.27250 39048 ft 475 kts 130°
2026-04-22 10:59 -18.05333 137.32850 39049 ft 475 kts 130°
2026-04-22 10:59 -18.09214 137.38498 39048 ft 475 kts 130°
2026-04-22 11:00 -18.13063 137.44104 39049 ft 476 kts 130°
2026-04-22 11:00 -18.16944 137.49762 39049 ft 476 kts 130°
2026-04-22 11:01 -18.20817 137.55412 39049 ft 476 kts 130°
2026-04-22 11:01 -18.24662 137.61028 39051 ft 476 kts 130°
2026-04-22 11:02 -18.28538 137.66692 39053 ft 476 kts 131°
2026-04-22 11:02 -18.32411 137.72358 39043 ft 477 kts 131°
2026-04-22 11:03 -18.36284 137.78029 39054 ft 477 kts 131°
2026-04-22 11:03 -18.40158 137.83707 39048 ft 477 kts 131°
2026-04-22 11:04 -18.44007 137.89352 39055 ft 478 kts 131°
2026-04-22 11:04 -18.47876 137.95032 39053 ft 477 kts 131°
2026-04-22 11:05 -18.51754 138.00730 39055 ft 477 kts 131°
2026-04-22 11:05 -18.55627 138.06428 39055 ft 478 kts 131°
2026-04-22 11:06 -18.59497 138.12124 39055 ft 478 kts 131°
2026-04-22 11:06 -18.63341 138.17789 39059 ft 478 kts 131°
2026-04-22 11:07 -18.67206 138.23489 39063 ft 478 kts 131°
2026-04-22 11:07 -18.71076 138.29203 39062 ft 479 kts 131°
2026-04-22 11:08 -18.74959 138.34938 39059 ft 480 kts 131°
2026-04-22 11:08 -18.78820 138.40650 39059 ft 481 kts 131°
2026-04-22 11:09 -18.82709 138.46407 39058 ft 481 kts 131°
2026-04-22 11:09 -18.86603 138.52176 39061 ft 481 kts 131°
2026-04-22 11:10 -18.90483 138.57931 39058 ft 481 kts 131°
2026-04-22 11:10 -18.94339 138.63655 39058 ft 481 kts 131°
2026-04-22 11:11 -18.98216 138.69416 39062 ft 481 kts 131°
2026-04-22 11:11 -19.02089 138.75177 39061 ft 481 kts 131°
2026-04-22 11:12 -19.05965 138.80946 39065 ft 481 kts 131°
2026-04-22 11:12 -19.09841 138.86720 39064 ft 481 kts 131°
2026-04-22 11:13 -19.13713 138.92495 39064 ft 481 kts 131°
2026-04-22 11:13 -19.17585 138.98275 39068 ft 481 kts 131°
2026-04-22 11:14 -19.21432 139.04021 39077 ft 481 kts 131°
2026-04-22 11:14 -19.25300 139.09806 39083 ft 481 kts 131°
2026-04-22 11:15 -19.29167 139.15595 39072 ft 482 kts 131°
2026-04-22 11:15 -19.33036 139.21393 39075 ft 482 kts 131°
2026-04-22 11:16 -19.36901 139.27189 39075 ft 482 kts 131°
2026-04-22 11:16 -19.40768 139.32995 39076 ft 482 kts 131°
2026-04-22 11:17 -19.44629 139.38796 39074 ft 482 kts 131°
2026-04-22 11:17 -19.48463 139.44562 39072 ft 481 kts 131°
2026-04-22 11:18 -19.52320 139.50369 39072 ft 481 kts 131°
2026-04-22 11:18 -19.56182 139.56188 39074 ft 482 kts 131°
2026-04-22 11:19 -19.60047 139.62017 39076 ft 483 kts 131°
2026-04-22 11:19 -19.63907 139.67845 39075 ft 483 kts 131°
2026-04-22 11:20 -19.67765 139.73676 39070 ft 483 kts 131°
2026-04-22 11:20 -19.71626 139.79517 39070 ft 483 kts 131°
2026-04-22 11:21 -19.75487 139.85361 39079 ft 483 kts 131°
2026-04-22 11:21 -19.79340 139.91203 39075 ft 483 kts 131°
2026-04-22 11:22 -19.83195 139.97053 39087 ft 483 kts 131°
2026-04-22 11:22 -19.87051 140.02908 39083 ft 484 kts 131°
2026-04-22 11:23 -19.90884 140.08734 39075 ft 484 kts 131°
2026-04-22 11:23 -19.94766 140.14641 39075 ft 484 kts 131°
2026-04-22 11:24 -19.98619 140.20511 39094 ft 484 kts 132°
2026-04-22 11:24 -20.02473 140.26387 39076 ft 485 kts 132°
2026-04-22 11:25 -20.06308 140.32239 39080 ft 485 kts 132°
2026-04-22 11:25 -20.10190 140.38170 39080 ft 485 kts 132°
2026-04-22 11:26 -20.14018 140.44025 39084 ft 485 kts 132°
2026-04-22 11:26 -20.17899 140.49966 39079 ft 486 kts 132°
2026-04-22 11:27 -20.21730 140.55837 39078 ft 486 kts 132°
2026-04-22 11:27 -20.25583 140.61747 39079 ft 486 kts 132°
2026-04-22 11:28 -20.28811 140.66703 39093 ft 486 kts 132°
2026-04-22 11:28 -20.32660 140.72619 39087 ft 486 kts 132°
2026-04-22 11:29 -20.36486 140.78503 39080 ft 486 kts 132°
2026-04-22 11:29 -20.40335 140.84431 39079 ft 486 kts 132°
2026-04-22 11:30 -20.44181 140.90360 39088 ft 487 kts 132°
2026-04-22 11:30 -20.48035 140.96306 39086 ft 487 kts 132°
2026-04-22 11:31 -20.51889 141.02259 39085 ft 488 kts 132°
2026-04-22 11:31 -20.55738 141.08212 39089 ft 488 kts 132°
2026-04-22 11:32 -20.59592 141.14177 39087 ft 488 kts 132°
2026-04-22 11:32 -20.63440 141.20140 39092 ft 488 kts 132°
2026-04-22 11:33 -20.67291 141.26112 39088 ft 488 kts 132°
2026-04-22 11:33 -20.71137 141.32085 39089 ft 488 kts 132°
2026-04-22 11:34 -20.74981 141.38060 39094 ft 488 kts 132°
2026-04-22 11:34 -20.78828 141.44045 39094 ft 489 kts 132°
2026-04-22 11:35 -20.82676 141.50039 39094 ft 489 kts 132°
2026-04-22 11:35 -20.86524 141.56037 39097 ft 493 kts 132°
2026-04-22 11:36 -20.90449 141.62150 39097 ft 504 kts 132°
2026-04-22 11:36 -20.94449 141.68394 39096 ft 513 kts 131°
2026-04-22 11:37 -20.98478 141.74707 39099 ft 514 kts 131°
2026-04-22 11:37 -21.02499 141.81018 39102 ft 513 kts 131°
2026-04-22 11:38 -21.06520 141.87328 39099 ft 513 kts 131°
2026-04-22 11:38 -21.12564 141.96816 39100 ft 514 kts 131°
2026-04-22 11:39 -21.16562 142.03103 39105 ft 514 kts 131°
2026-04-22 11:39 -21.20587 142.09440 39109 ft 515 kts 131°
2026-04-22 11:40 -21.24618 142.15791 39108 ft 515 kts 131°
2026-04-22 11:40 -21.28646 142.22148 39108 ft 515 kts 131°
2026-04-22 11:41 -21.32674 142.28510 39131 ft 516 kts 131°
2026-04-22 11:41 -21.36704 142.34883 39114 ft 517 kts 131°
2026-04-22 11:42 -21.40739 142.41271 39110 ft 517 kts 131°
2026-04-22 11:42 -21.44771 142.47664 39116 ft 517 kts 131°
2026-04-22 11:43 -21.48800 142.54057 39116 ft 517 kts 131°
2026-04-22 11:43 -21.52830 142.60460 39117 ft 517 kts 131°
2026-04-22 11:44 -21.56857 142.66865 39116 ft 517 kts 131°
2026-04-22 11:44 -21.60882 142.73275 39120 ft 517 kts 131°
2026-04-22 11:45 -21.64906 142.79691 39128 ft 518 kts 131°
2026-04-22 11:45 -21.68932 142.86116 39122 ft 518 kts 131°
2026-04-22 11:46 -21.72956 142.92547 39125 ft 518 kts 131°
2026-04-22 11:46 -21.76979 142.98984 39143 ft 518 kts 131°
2026-04-22 11:47 -21.81000 143.05425 39128 ft 519 kts 131°
2026-04-22 11:47 -21.85024 143.11878 39129 ft 519 kts 131°
2026-04-22 11:48 -21.89043 143.18331 39130 ft 519 kts 131°
2026-04-22 11:48 -21.93062 143.24793 39129 ft 519 kts 131°
2026-04-22 11:49 -21.97077 143.31255 39127 ft 519 kts 131°
2026-04-22 11:49 -22.01095 143.37729 39131 ft 520 kts 130°
2026-04-22 11:50 -22.05109 143.44207 39134 ft 520 kts 130°
2026-04-22 11:50 -22.09120 143.50686 39140 ft 520 kts 130°
2026-04-22 11:51 -22.13133 143.57178 39141 ft 520 kts 130°
2026-04-22 11:51 -22.17141 143.63668 39139 ft 520 kts 130°
2026-04-22 11:52 -22.21123 143.70125 39138 ft 520 kts 130°
2026-04-22 11:52 -22.25131 143.76632 39153 ft 519 kts 130°
2026-04-22 11:53 -22.29134 143.83139 39148 ft 519 kts 130°
2026-04-22 11:53 -22.33127 143.89636 39144 ft 519 kts 130°
2026-04-22 11:54 -22.37061 143.96059 39150 ft 510 kts 130°
2026-04-22 11:54 -22.41017 144.02500 39147 ft 517 kts 130°
2026-04-22 11:55 -22.44993 144.08987 39149 ft 518 kts 130°
2026-04-22 11:55 -22.48968 144.15490 39144 ft 518 kts 130°
2026-04-22 11:56 -22.51103 144.18597 44335 ft 508 kts 137°
2026-04-22 11:56 -22.53079 144.21166 44673 ft 498 kts 137°
2026-04-22 11:56 -22.55276 144.24034 45001 ft 492 kts 137°
2026-04-22 11:56 -22.57440 144.26866 45247 ft 486 kts 137°
2026-04-22 11:57 -22.59589 144.29690 45438 ft 482 kts 137°
2026-04-22 11:57 -22.61715 144.32488 45594 ft 478 kts 137°
2026-04-22 11:57 -22.65913 144.38057 45575 ft 480 kts 136°
2026-04-22 11:58 -22.67997 144.40902 45435 ft 484 kts 136°
2026-04-22 11:58 -22.70092 144.43768 45327 ft 487 kts 136°
2026-04-22 11:58 -22.74292 144.49502 45176 ft 490 kts 136°
2026-04-22 11:59 -22.78531 144.55287 45044 ft 488 kts 136°
2026-04-22 11:59 -22.80630 144.58157 44913 ft 485 kts 136°
2026-04-22 11:59 -22.82737 144.61034 44760 ft 489 kts 136°
2026-04-22 12:00 -22.84853 144.63922 44606 ft 489 kts 136°
2026-04-22 12:00 -22.86967 144.66806 44447 ft 488 kts 136°
2026-04-22 12:00 -22.89077 144.69687 44295 ft 487 kts 136°
2026-04-22 12:00 -22.91186 144.72567 44160 ft 488 kts 136°
2026-04-22 12:01 -22.93261 144.75498 44005 ft 494 kts 132°
2026-04-22 12:01 -22.95120 144.78664 43784 ft 502 kts 125°
2026-04-22 12:01 -22.96851 144.81966 43583 ft 502 kts 127°
2026-04-22 12:01 -22.98623 144.85235 43409 ft 503 kts 127°
2026-04-22 12:02 -23.00400 144.88509 43256 ft 504 kts 127°
2026-04-22 12:02 -23.02177 144.91783 43111 ft 504 kts 127°
2026-04-22 12:02 -23.03950 144.95052 42974 ft 502 kts 127°
2026-04-22 12:02 -23.05699 144.98277 42824 ft 500 kts 127°
2026-04-22 12:03 -23.07462 145.01532 42714 ft 499 kts 127°
2026-04-22 12:03 -23.09219 145.04795 42443 ft 502 kts 126°
2026-04-22 12:03 -23.10984 145.08096 42080 ft 506 kts 127°
2026-04-22 12:03 -23.12764 145.11412 41740 ft 511 kts 127°
2026-04-22 12:04 -23.14561 145.14741 41395 ft 507 kts 127°
2026-04-22 12:04 -23.16340 145.18037 41051 ft 502 kts 127°
2026-04-22 12:04 -23.18072 145.21249 40717 ft 497 kts 127°
2026-04-22 12:04 -23.19810 145.24483 40369 ft 491 kts 127°
2026-04-22 12:05 -23.21521 145.27676 40055 ft 486 kts 127°
2026-04-22 12:05 -23.23214 145.30844 39719 ft 482 kts 127°
2026-04-22 12:05 -23.24887 145.33981 39375 ft 477 kts 127°
2026-04-22 12:05 -23.26536 145.37095 39149 ft 470 kts 127°
2026-04-22 12:06 -23.28141 145.40164 39032 ft 465 kts 127°
2026-04-22 12:06 -23.29746 145.43234 38945 ft 470 kts 126°
2026-04-22 12:06 -23.33003 145.49493 38968 ft 480 kts 126°
2026-04-22 12:07 -23.36310 145.55817 39093 ft 487 kts 126°
2026-04-22 12:07 -23.39695 145.62265 39261 ft 493 kts 126°
2026-04-22 12:08 -23.43127 145.68783 39406 ft 500 kts 126°
2026-04-22 12:08 -23.46617 145.75404 39489 ft 508 kts 126°
2026-04-22 12:09 -23.50168 145.82113 39634 ft 514 kts 126°
2026-04-22 12:09 -23.53807 145.88900 39579 ft 521 kts 127°
2026-04-22 12:10 -23.57537 145.95712 39363 ft 523 kts 127°
2026-04-22 12:10 -23.59381 145.99086 39190 ft 513 kts 127°
2026-04-22 12:10 -23.61186 146.02401 39006 ft 503 kts 127°
2026-04-22 12:11 -23.64391 146.08330 38816 ft 487 kts 127°
2026-04-22 12:11 -23.67911 146.14762 38783 ft 499 kts 127°
2026-04-22 12:12 -23.71519 146.21313 38852 ft 508 kts 127°
2026-04-22 12:12 -23.75201 146.27969 39015 ft 515 kts 127°
2026-04-22 12:13 -23.77060 146.31323 39183 ft 516 kts 127°
2026-04-22 12:13 -23.78920 146.34677 39343 ft 518 kts 127°
2026-04-22 12:13 -23.82702 146.41478 39296 ft 529 kts 127°
2026-04-22 12:14 -23.84607 146.44883 39333 ft 518 kts 128°
2026-04-22 12:14 -23.86462 146.48162 39296 ft 506 kts 128°
2026-04-22 12:14 -23.90116 146.54568 39079 ft 486 kts 129°
2026-04-22 12:15 -23.93096 146.59690 39102 ft 473 kts 130°
2026-04-22 12:15 -23.96617 146.65685 39180 ft 464 kts 130°
2026-04-22 12:16 -24.00082 146.71593 39152 ft 467 kts 130°
2026-04-22 12:16 -24.03605 146.77568 39155 ft 469 kts 130°
2026-04-22 12:17 -24.07142 146.83560 39188 ft 464 kts 130°
2026-04-22 12:17 -24.10620 146.89471 39144 ft 461 kts 130°
2026-04-22 12:18 -24.14087 146.95369 39084 ft 460 kts 130°
2026-04-22 12:18 -24.17544 147.01244 39052 ft 467 kts 130°
2026-04-22 12:19 -24.21110 147.07270 39120 ft 475 kts 130°
2026-04-22 12:19 -24.24749 147.13391 39264 ft 480 kts 130°
2026-04-22 12:20 -24.28318 147.19418 39282 ft 465 kts 130°
2026-04-22 12:20 -24.31814 147.25349 39224 ft 462 kts 130°
2026-04-22 12:21 -24.35320 147.31294 39170 ft 465 kts 130°
2026-04-22 12:21 -24.38816 147.37226 39129 ft 461 kts 130°
2026-04-22 12:22 -24.42261 147.43084 39074 ft 459 kts 130°
2026-04-22 12:22 -24.45720 147.48976 38984 ft 461 kts 128°
2026-04-22 12:23 -24.48949 147.55064 38887 ft 462 kts 126°
2026-04-22 12:23 -24.52111 147.61297 38838 ft 473 kts 126°
2026-04-22 12:24 -24.55418 147.67647 38795 ft 485 kts 126°
2026-04-22 12:24 -24.58872 147.74117 38775 ft 497 kts 126°
2026-04-22 12:25 -24.62279 147.80777 38802 ft 509 kts 124°
2026-04-22 12:25 -24.65617 147.87762 38830 ft 522 kts 122°
2026-04-22 12:26 -24.68836 147.95022 38870 ft 534 kts 120°
2026-04-22 12:26 -24.71882 148.02512 39227 ft 530 kts 117°
2026-04-22 12:27 -24.73296 148.06220 39455 ft 519 kts 119°
2026-04-22 12:27 -24.74794 148.09747 39552 ft 511 kts 121°
2026-04-22 12:27 -24.77971 148.16660 39513 ft 502 kts 124°
2026-04-22 12:28 -24.81378 148.23307 39419 ft 494 kts 127°
2026-04-22 12:28 -24.85048 148.29660 39331 ft 489 kts 130°
2026-04-22 12:29 -24.88862 148.35852 39244 ft 486 kts 131°
2026-04-22 12:29 -24.92737 148.41929 39142 ft 483 kts 133°
2026-04-22 12:30 -24.98657 148.50792 38984 ft 478 kts 135°
2026-04-22 12:31 -25.02651 148.56651 38957 ft 477 kts 133°
2026-04-22 12:31 -25.06358 148.62722 38909 ft 477 kts 129°
2026-04-22 12:32 -25.09736 148.69010 38861 ft 476 kts 126°
2026-04-22 12:32 -25.14301 148.78697 38751 ft 476 kts 121°
2026-04-22 12:33 -25.17234 148.85195 38799 ft 468 kts 124°
2026-04-22 12:33 -25.20404 148.91413 38819 ft 461 kts 127°
2026-04-22 12:34 -25.23718 148.97434 38803 ft 455 kts 129°
2026-04-22 12:34 -25.27158 149.03184 38761 ft 448 kts 132°
2026-04-22 12:35 -25.30730 149.08808 38718 ft 448 kts 132°
2026-04-22 12:35 -25.34313 149.14546 38740 ft 459 kts 132°
2026-04-22 12:36 -25.38118 149.20288 38767 ft 465 kts 136°
2026-04-22 12:36 -25.42318 149.25804 38742 ft 473 kts 140°
2026-04-22 12:37 -25.44510 149.28571 38648 ft 485 kts 137°
2026-04-22 12:37 -25.46649 149.31539 38469 ft 498 kts 134°
2026-04-22 12:37 -25.50768 149.37811 38344 ft 515 kts 132°
2026-04-22 12:38 -25.55067 149.44253 38347 ft 525 kts 134°
2026-04-22 12:38 -25.57310 149.47443 38631 ft 520 kts 135°
2026-04-22 12:38 -25.59509 149.50520 39189 ft 497 kts 136°
2026-04-22 12:39 -25.61651 149.53468 39667 ft 485 kts 136°
2026-04-22 12:39 -25.65832 149.59046 40557 ft 462 kts 138°
2026-04-22 12:39 -25.67904 149.61722 40750 ft 458 kts 138°
2026-04-22 12:40 -25.69956 149.64506 40429 ft 471 kts 136°
2026-04-22 12:40 -25.71990 149.67410 40107 ft 483 kts 134°
2026-04-22 12:40 -25.73990 149.70453 39832 ft 492 kts 133°
2026-04-22 12:40 -25.75936 149.73625 39645 ft 503 kts 128°
2026-04-22 12:41 -25.77678 149.77040 39390 ft 516 kts 122°
2026-04-22 12:41 -25.79185 149.80692 39155 ft 522 kts 117°
2026-04-22 12:41 -25.80493 149.84461 38986 ft 524 kts 115°
2026-04-22 12:42 -25.83057 149.92024 38871 ft 523 kts 115°
2026-04-22 12:42 -25.85624 149.99587 38730 ft 523 kts 115°
2026-04-22 12:43 -25.88093 150.07189 38804 ft 525 kts 113°
2026-04-22 12:43 -25.90581 150.14810 38871 ft 524 kts 114°
2026-04-22 12:44 -25.92838 150.22457 38887 ft 525 kts 112°
2026-04-22 12:44 -25.95197 150.30067 38879 ft 509 kts 115°
2026-04-22 12:44 -25.96383 150.33726 38864 ft 498 kts 115°
2026-04-22 12:45 -25.97565 150.37350 38865 ft 500 kts 115°
2026-04-22 12:45 -25.99935 150.44664 38878 ft 504 kts 114°
2026-04-22 12:46 -26.02280 150.52016 38892 ft 505 kts 114°
2026-04-22 12:46 -26.04592 150.59395 38896 ft 505 kts 114°
2026-04-22 12:47 -26.06892 150.66771 38895 ft 505 kts 114°
2026-04-22 12:47 -26.09180 150.74104 38896 ft 505 kts 114°
2026-04-22 12:48 -26.11490 150.81482 38907 ft 505 kts 114°
2026-04-22 12:48 -26.13804 150.88859 38909 ft 505 kts 114°
2026-04-22 12:49 -26.16124 150.96247 38909 ft 505 kts 114°
2026-04-22 12:49 -26.18446 151.03631 38821 ft 504 kts 114°
2026-04-22 12:49 -26.19602 151.07300 38619 ft 503 kts 114°
2026-04-22 12:50 -26.20782 151.10978 38419 ft 503 kts 115°
2026-04-22 12:50 -26.21964 151.14593 38230 ft 503 kts 115°
2026-04-22 12:50 -26.23154 151.18260 37972 ft 503 kts 114°
2026-04-22 12:50 -26.24332 151.21933 37722 ft 503 kts 114°
2026-04-22 12:51 -26.25500 151.25616 37533 ft 504 kts 114°
2026-04-22 12:51 -26.26656 151.29303 37281 ft 502 kts 114°
2026-04-22 12:51 -26.27798 151.32966 37013 ft 499 kts 114°
2026-04-22 12:51 -26.28957 151.36610 36752 ft 498 kts 114°
2026-04-22 12:52 -26.30133 151.40232 36484 ft 497 kts 115°
2026-04-22 12:52 -26.31331 151.43846 36195 ft 497 kts 115°
2026-04-22 12:52 -26.32525 151.47412 35822 ft 497 kts 115°
2026-04-22 12:52 -26.33738 151.51027 35394 ft 497 kts 115°
2026-04-22 12:53 -26.34952 151.54635 34903 ft 497 kts 115°
2026-04-22 12:53 -26.36165 151.58252 34349 ft 498 kts 115°
2026-04-22 12:53 -26.37377 151.61869 33715 ft 497 kts 115°
2026-04-22 12:53 -26.38588 151.65483 33104 ft 496 kts 115°
2026-04-22 12:54 -26.39774 151.69104 32467 ft 496 kts 114°
2026-04-22 12:54 -26.40916 151.72735 31761 ft 497 kts 112°
2026-04-22 12:54 -26.42054 151.76378 31073 ft 497 kts 113°
2026-04-22 12:54 -26.43222 151.80003 30406 ft 496 kts 113°
2026-04-22 12:55 -26.44010 151.82386 29895 ft 495 kts 114°
2026-04-22 12:55 -26.45644 151.87183 28868 ft 492 kts 114°
2026-04-22 12:55 -26.46888 151.90721 28123 ft 490 kts 115°
2026-04-22 12:55 -26.48158 151.94239 27425 ft 487 kts 116°
2026-04-22 12:56 -26.49447 151.97723 26732 ft 484 kts 116°
2026-04-22 12:56 -26.50738 152.01134 26070 ft 481 kts 116°
2026-04-22 12:56 -26.52050 152.04540 25585 ft 473 kts 116°
2026-04-22 12:56 -26.53296 152.07925 25026 ft 468 kts 115°
2026-04-22 12:57 -26.54488 152.11273 24619 ft 460 kts 115°
2026-04-22 12:57 -26.55661 152.14554 24254 ft 450 kts 115°
2026-04-22 12:57 -26.56796 152.17769 23965 ft 439 kts 115°
2026-04-22 12:57 -26.57871 152.20922 23693 ft 428 kts 114°
2026-04-22 12:58 -26.58878 152.24008 23379 ft 418 kts 113°
2026-04-22 12:58 -26.59851 152.27034 23052 ft 410 kts 113°
2026-04-22 12:58 -26.60795 152.30010 22707 ft 402 kts 113°
2026-04-22 12:58 -26.61709 152.32929 22363 ft 394 kts 112°
2026-04-22 12:59 -26.62582 152.35757 22028 ft 387 kts 112°
2026-04-22 12:59 -26.63448 152.38580 21719 ft 379 kts 114°
2026-04-22 12:59 -26.64734 152.41065 21452 ft 361 kts 136°
2026-04-22 12:59 -26.66585 152.42839 21210 ft 345 kts 149°
2026-04-22 13:00 -26.68536 152.44356 20958 ft 337 kts 150°
2026-04-22 13:00 -26.70441 152.45854 20712 ft 331 kts 148°
2026-04-22 13:00 -26.72262 152.47384 20475 ft 324 kts 146°
2026-04-22 13:00 -26.74003 152.48955 20236 ft 319 kts 144°
2026-04-22 13:01 -26.75661 152.50566 20002 ft 313 kts 142°
2026-04-22 13:01 -26.77240 152.52221 19765 ft 308 kts 140°
2026-04-22 13:01 -26.78716 152.53890 19532 ft 303 kts 138°
2026-04-22 13:01 -26.80165 152.55590 19192 ft 301 kts 139°
2026-04-22 13:02 -26.81660 152.57232 18825 ft 300 kts 141°
2026-04-22 13:02 -26.83210 152.58779 18484 ft 298 kts 142°
2026-04-22 13:02 -26.84752 152.60322 18109 ft 296 kts 141°
2026-04-22 13:02 -26.86285 152.61878 17558 ft 300 kts 141°
2026-04-22 13:03 -26.87855 152.63476 16816 ft 309 kts 141°
2026-04-22 13:03 -26.89463 152.65113 16058 ft 316 kts 140°
2026-04-22 13:03 -26.91109 152.66794 15216 ft 324 kts 140°
2026-04-22 13:03 -26.92796 152.68517 14343 ft 333 kts 139°
2026-04-22 13:04 -26.94528 152.70285 13437 ft 338 kts 139°
2026-04-22 13:04 -26.96281 152.72061 12567 ft 340 kts 139°
2026-04-22 13:04 -26.98047 152.73839 11675 ft 341 kts 139°
2026-04-22 13:04 -26.99730 152.75608 11323 ft 323 kts 135°
2026-04-22 13:05 -27.01073 152.77555 10897 ft 312 kts 120°
2026-04-22 13:05 -27.01649 152.79014 10601 ft 307 kts 111°
2026-04-22 13:05 -27.02459 152.81982 10027 ft 294 kts 108°
2026-04-22 13:05 -27.02999 152.84158 9512 ft 286 kts 109°
2026-04-22 13:06 -27.03596 152.86266 8885 ft 282 kts 112°
2026-04-22 13:06 -27.04253 152.88322 8242 ft 278 kts 114°
2026-04-22 13:06 -27.04713 152.89656 7829 ft 275 kts 115°
2026-04-22 13:06 -27.05732 152.92253 7078 ft 268 kts 118°
2026-04-22 13:07 -27.06249 152.93495 6815 ft 262 kts 118°
2026-04-22 13:07 -27.07008 152.95325 6505 ft 256 kts 117°
2026-04-22 13:07 -27.07667 152.97172 6151 ft 253 kts 112°
2026-04-22 13:07 -27.08371 152.99631 5851 ft 243 kts 109°
2026-04-22 13:08 -27.08638 153.00851 5832 ft 234 kts 107°
2026-04-22 13:08 -27.08945 153.02586 5782 ft 220 kts 105°
2026-04-22 13:08 -27.09161 153.04264 5572 ft 216 kts 100°
2026-04-22 13:08 -27.09249 153.05921 5375 ft 212 kts 99°
2026-04-22 13:09 -27.09391 153.07526 5247 ft 201 kts 104°
2026-04-22 13:09 -27.09675 153.09021 5087 ft 194 kts 109°
2026-04-22 13:09 -27.09979 153.10471 4939 ft 183 kts 109°
2026-04-22 13:09 -27.10255 153.11827 4765 ft 173 kts 108°
2026-04-22 13:10 -27.10452 153.13144 4456 ft 172 kts 102°
2026-04-22 13:10 -27.10539 153.14496 4039 ft 177 kts 98°
2026-04-22 13:10 -27.10570 153.15901 3654 ft 180 kts 98°
2026-04-22 13:10 -27.10597 153.17291 3371 ft 176 kts 98°
2026-04-22 13:11 -27.10700 153.18666 2923 ft 179 kts 104°
2026-04-22 13:11 -27.10967 153.19962 2877 ft 158 kts 111°
2026-04-22 13:11 -27.11254 153.21107 3001 ft 165 kts 112°
2026-04-22 13:11 -27.11617 153.22427 3193 ft 183 kts 113°
2026-04-22 13:12 -27.12198 153.23789 3575 ft 192 kts 127°
2026-04-22 13:12 -27.13061 153.24749 3907 ft 160 kts 152°
2026-04-22 13:12 -27.14224 153.25021 4311 ft 189 kts 178°
2026-04-22 13:12 -27.15614 153.25086 4531 ft 213 kts 176°
2026-04-22 13:13 -27.17106 153.24881 4506 ft 220 kts 192°
2026-04-22 13:13 -27.18545 153.24266 4292 ft 222 kts 201°
2026-04-22 13:13 -27.19930 153.23473 3960 ft 223 kts 204°
2026-04-22 13:13 -27.21296 153.22673 3598 ft 216 kts 202°
2026-04-22 13:14 -27.22613 153.21926 3247 ft 206 kts 201°
2026-04-22 13:14 -27.23844 153.21226 2967 ft 192 kts 201°
2026-04-22 13:14 -27.24997 153.20567 2744 ft 180 kts 200°
2026-04-22 13:14 -27.26082 153.19948 2503 ft 171 kts 201°
2026-04-22 13:15 -27.27131 153.19349 2298 ft 168 kts 200°
2026-04-22 13:15 -27.28150 153.18764 2094 ft 158 kts 201°
2026-04-22 13:15 -27.29085 153.18219 1902 ft 145 kts 201°
2026-04-22 13:15 -27.29941 153.17717 1708 ft 138 kts 200°
2026-04-22 13:16 -27.30801 153.17226 1451 ft 139 kts 200°
2026-04-22 13:16 -27.31657 153.16735 1276 ft 136 kts 201°
2026-04-22 13:16 -27.32483 153.16271 1155 ft 129 kts 199°
2026-04-22 13:16 -27.33290 153.15841 976 ft 129 kts 201°
2026-04-22 13:17 -27.34084 153.15383 803 ft 127 kts 202°
2026-04-22 13:17 -27.34862 153.14935 631 ft 126 kts 204°
2026-04-22 13:17 -27.35661 153.14491 435 ft 126 kts 207°
2026-04-22 13:17 -27.36425 153.14032 291 ft 124 kts 207°
2026-04-22 13:18 -27.37194 153.13589 136 ft 124 kts 207°
2026-04-22 13:18 -27.37961 153.13152 27 ft 118 kts 207°
2026-04-22 13:18 -27.38576 153.12794 27 ft 86 kts 207°
2026-04-22 13:18 -27.38960 153.12513 25 ft 38 kts 228°
2026-04-22 13:19 -27.39040 153.12392 22 ft 17 kts 237°
2026-04-22 13:19 -27.39099 153.12291 23 ft 14 kts 236°
2026-04-22 13:19 -27.39130 153.12215 21 ft 9 kts 261°
2026-04-22 13:19 -27.39115 153.12170 22 ft 6 kts 309°
2026-04-22 13:20 -27.39083 153.12152 21 ft 4 kts 347°
2026-04-22 13:20 -27.39063 153.12155 21 ft 3 kts 11°
2026-04-22 13:20 -27.39049 153.12162 21 ft 2 kts 25°
2026-04-22 13:20 -27.39029 153.12173 21 ft 4 kts 26°
2026-04-22 13:21 -27.38996 153.12192 21 ft 6 kts 27°
2026-04-22 13:21 -27.38950 153.12219 21 ft 9 kts 27°
2026-04-22 13:21 -27.38889 153.12254 21 ft 11 kts 27°
2026-04-22 13:21 -27.38818 153.12272 21 ft 10 kts 348°
2026-04-22 13:22 -27.38787 153.12240 21 ft 5 kts 298°
2026-04-22 13:22 -27.38775 153.12203 21 ft 5 kts 280°
2026-04-22 13:22 -27.38767 153.12158 23 ft 6 kts 289°
2026-04-22 13:22 -27.38736 153.12149 21 ft 5 kts 14°
2026-04-22 13:23 -27.38700 153.12159 22 ft 6 kts 12°
2026-04-22 13:23 -27.38688 153.12162 21 ft 0 kts 14°